Weather History for Grazzanise, Italy

Change the Weather History Date:

Sunday, September 8, 2013

  Actual Average (LIRN) Record (LIRN)
Temperature  
Mean Temperature 76 °F -  
Max Temperature 86 °F 78 °F 89 °F (1997)
Min Temperature 66 °F 57 °F 51 °F (1996)
Cooling Degree Days 11    
Growing Degree Days 26 (Base 50)    
Moisture  
Dew Point 70 °F    
Average Humidity 81    
Maximum Humidity 95    
Minimum Humidity 58    
Precipitation  
Precipitation 0.00 in 0.12 in - ()
Sea Level Pressure  
Sea Level Pressure 30.12 in    
Wind  
Wind Speed 4 mph ()    
Max Wind Speed 10 mph    
Max Gust Speed -    
Visibility 7.1 miles    
Events      
Averages and records for this station are not official NWS values.
T = Trace of Precipitation, MM = Missing Value Source: Averaged Metar Reports

Daily Weather History Graph

Daily Weather History Graph

Search for Another Location

Airport:

Trip Planner

Search our weather history database for the weather conditions in past years. The results will help you decide how hot, cold, wet, or windy it might be!

Date:

Astronomy

Sep. 08, 2013 Rise Set
Actual Time 6:37 AM CEST 7:24 PM CEST
Civil Twilight 6:09 AM CEST 7:52 PM CEST
Nautical Twilight 5:36 AM CEST 8:25 PM CEST
Astronomical Twilight 5:01 AM CEST 8:59 PM CEST
Moon 9:38 AM CEST (9/8) 8:46 PM CEST (9/8)
Length of Visible Light 13h 43m
Length of Day
12h 47m
Waxing Crescent, 9% of the Moon is Illuminated
Sep 8
Waxing Crescent
Sep 12
First Quarter
Sep 19
Full
Sep 27
Last Quarter
Oct 5
New

Hourly Weather History & Observations

Time (CEST) Temp. Heat Index Dew Point Humidity Pressure Visibility Wind Dir Wind Speed Gust Speed Precip Events Conditions
12:55 AM 71.6 °F - 68.0 °F 88% 30.06 in - SE 2.3 mph - N/A   Clear
1:55 AM 69.8 °F - 66.2 °F 88% 30.09 in - NE 4.6 mph - N/A   Clear
2:00 AM 71 °F - 67 °F 82% 30.09 in 12 mi NE 4.6 mph - -  
2:55 AM 69.8 °F - 66.2 °F 88% 30.09 in - NE 4.6 mph - N/A   Clear
3:55 AM 68.0 °F - 62.6 °F 83% 30.09 in - ENE 3.5 mph - N/A   Clear
4:55 AM 68.0 °F - 62.6 °F 83% 30.09 in - ENE 2.3 mph - N/A   Clear
5:00 AM 68 °F - 63 °F 80% 30.09 in 12 mi ENE 2.3 mph - -  
5:55 AM 68.0 °F - 62.6 °F 83% 30.09 in - NNE 4.6 mph - N/A   Clear
6:55 AM 66.2 °F - 60.8 °F 83% 30.09 in 3.7 mi NNE 3.5 mph - N/A   Mostly Cloudy
7:55 AM 69.8 °F - 64.4 °F 83% 30.12 in 4.3 mi ENE 4.6 mph - N/A   Partly Cloudy
8:00 AM 69 °F - 64 °F 81% 30.13 in 4 mi ENE 4.6 mph - -  
8:55 AM 73.4 °F - 69.8 °F 88% 30.15 in 4.3 mi East 3.5 mph - N/A   Partly Cloudy
9:55 AM 78.8 °F - 73.4 °F 83% 30.15 in 5.0 mi East 4.6 mph - N/A   Partly Cloudy
10:55 AM 84.2 °F 92.3 °F 75.2 °F 74% 30.15 in 6.2 mi East 3.5 mph - N/A   Partly Cloudy
11:00 AM 83 °F - 76 °F 73% 30.17 in 6 mi East 3.5 mph - -   Scattered Clouds
11:55 AM 84.2 °F 90.9 °F 73.4 °F 70% 30.15 in 6.2 mi WSW 4.6 mph - N/A   Partly Cloudy
12:55 PM 86.0 °F 91.8 °F 71.6 °F 62% 30.15 in 6.2 mi WNW 3.5 mph - N/A   Partly Cloudy
1:55 PM 86.0 °F 95.1 °F 75.2 °F 70% 30.15 in 6.2 mi WSW 9.2 mph - N/A   Partly Cloudy
2:00 PM 86 °F - 74 °F 61% 30.16 in 9 mi WSW 9.2 mph - -  
2:55 PM 86.0 °F 90.4 °F 69.8 °F 58% 30.12 in 6.2 mi WSW 9.2 mph - N/A   Partly Cloudy
3:55 PM 86.0 °F 93.4 °F 73.4 °F 66% 30.12 in - West 10.4 mph - N/A   Clear
4:55 PM 82.4 °F 89.5 °F 75.2 °F 79% 30.12 in - West 9.2 mph - N/A   Clear
5:00 PM 82 °F - 75 °F 75% 30.15 in 12 mi West 9.2 mph - -   Clear
5:55 PM 82.4 °F 90.9 °F 77.0 °F 84% 30.12 in - West 6.9 mph - N/A   Clear
6:55 PM 78.8 °F - 77.0 °F 94% 30.12 in - West 6.9 mph - N/A   Clear
7:55 PM 77.0 °F - 75.2 °F 94% 30.15 in - West 5.8 mph - N/A   Clear
8:00 PM 77 °F - 76 °F 95% 30.15 in 14 mi West 5.8 mph - -  
8:55 PM 75.2 °F - 73.4 °F 94% 30.15 in 6.2 mi WSW 2.3 mph - N/A   Partly Cloudy
9:55 PM 75.2 °F - 71.6 °F 89% 30.12 in 6.2 mi SE 3.5 mph - N/A   Partly Cloudy
10:55 PM 71.6 °F - 68.0 °F 88% 30.12 in 6.2 mi SW 3.5 mph - N/A   Scattered Clouds
11:00 PM 72 °F - 69 °F 87% 30.14 in 7 mi SW 3.5 mph - -   Scattered Clouds
11:55 PM 71.6 °F - 68.0 °F 88% 30.12 in 6.2 mi ENE 2.3 mph - N/A   Scattered Clouds